STARLINK-11511 [DTC] (62468 NORAD) Tracking and Keplerian Element Data

This shows tracking and keplerian element data for the satellite.

Feedback or suggestion? Click here.




ElementValue
Catalog62468
NameSTARLINK-11511 [DTC]
Epoch Orbit671
Epoch Day35.1970674
Epoch Year2025
RAAN106.3083
Inclination43.0011
Eccentricity0.000173
Argument of Perigee265.5453
Mean Anonmoly94.522
Mean Motion15.77855278
Decay Rate7.32E-06
L11 62468U 24254G 25035.19706740 .00000732 00000+0 70743-5 0 9999
L22 62468 43.0011 106.3083 0001730 265.5453 94.5220 15.77855278 6710



Live tracking and technical data element details for STARLINK-11511 [DTC] (NORAD 62468). STARLINK-11511 [DTC] can be tracked NOW for your location showing map with azimuth and elevation plus other details from your city location.







IsCatalogInMostPopularTable: catalog: 62468, numindb: 17
Update: records affected: 1



GetName: 62468 STARLINK-11511 [DTC]

Hit Count: updated at: Mon, 19 May 2025 02:50:51 GMT